Location: Alpha Ridge Park
(39.3209°N, 76.9128°W)
Time: 20:29:04
(UTC-04:00)

QB50P2 - Visible Passes

Search period start: 27 June 2022 00:00
Search period end: 07 July 2022 00:00
Orbit: 589 x 607 km, 97.9° (Epoch: 27 June)

Date Brightness Start Highest point End Pass type
(mag) Time Alt. Az. Time Alt. Az. Time Alt. Az.
27 Jun ? 01:53:47 10° NE 01:57:04 30° E 01:57:04 30° E visible
27 Jun ? 03:29:50 10° NNW 03:33:00 21° WNW 03:33:46 20° W visible
28 Jun ? 02:04:04 10° NNE 02:07:38 39° E 02:07:38 39° E visible
28 Jun ? 03:40:44 10° NNW 03:43:23 16° WNW 03:44:21 15° W visible
29 Jun ? 02:14:25 10° NNE 02:18:13 52° E 02:18:13 52° E visible
29 Jun ? 03:51:50 10° NW 03:53:44 13° WNW 03:54:55 12° W visible
30 Jun ? 02:24:48 10° NNE 02:28:47 70° ENE 02:28:47 70° ENE visible
01 Jul ? 02:35:15 10° N 02:39:21 81° NNW 02:39:21 81° NNW visible
02 Jul ? 02:45:45 10° N 02:49:55 64° WNW 02:49:55 64° WNW visible
03 Jul ? 01:22:23 10° ENE 01:23:46 13° E 01:23:46 13° E visible
03 Jul ? 02:56:17 10° N 03:00:23 48° WNW 03:00:28 48° WNW visible
04 Jul ? 01:32:10 10° NE 01:34:19 17° E 01:34:19 17° E visible
04 Jul ? 03:06:53 10° N 03:10:48 36° WNW 03:11:01 36° W visible
05 Jul ? 01:42:11 10° NE 01:44:51 22° E 01:44:51 22° E visible
05 Jul ? 03:17:32 10° N 03:21:11 28° WNW 03:21:34 28° W visible
06 Jul ? 01:52:20 10° NE 01:55:24 28° E 01:55:24 28° E visible
06 Jul ? 03:28:16 10° NNW 03:31:33 22° WNW 03:32:06 22° W visible
